When you browse on this site, cookies collect data to enhance your experience and personalize the content and advertising you see.
Visit our Privacy Policy to learn more. By continuing to use the site, you agree to this use of cookies and data.
  • In Portugal
  • List of Countries
  • For 7 days
  • Water Temperature
  • Satellite Maps
  • Weather Map
  • Weather Widgets
  • user-avatar
    Login

    Hourly Weather Pinsk

    Today, 19 February, Tuesday

    Time Temperature Precipitation Wind Pressure Humidity
    00:00 +1°C° 0 mm 2 mps 755 mmHg 72%
    01:00 +1°C° 0 mm 2 mps 754 mmHg 74%
    02:00 -1°C° 0 mm 2 mps 754 mmHg 76%
    03:00 -1°C° 0 mm 3 mps 754 mmHg 79%
    04:00 -1°C° 0 mm 3 mps 753 mmHg 82%
    05:00 -1°C° 0 mm 3 mps 753 mmHg 85%
    06:00 -1°C° 0 mm 3 mps 753 mmHg 87%
    07:00 -1°C° 0 mm 3 mps 752 mmHg 90%
    08:00 0°C° 0 mm 3 mps 752 mmHg 92%
    09:00 0°C° 0 mm 4 mps 752 mmHg 87%
    10:00 +3°C° 0 mm 4 mps 751 mmHg 82%
    11:00 +3°C° 0 mm 5 mps 751 mmHg 76%
    12:00 +5°C° 0 mm 5 mps 750 mmHg 74%
    13:00 +6°C° 0 mm 5 mps 750 mmHg 72%
    14:00 +7°C° 0 mm 5 mps 749 mmHg 69%
    15:00 +6°C° 0 mm 5 mps 749 mmHg 71%
    16:00 +6°C° 0 mm 4 mps 748 mmHg 73%
    17:00 +5°C° 0 mm 4 mps 747 mmHg 74%
    18:00 +5°C° 0 mm 4 mps 747 mmHg 77%
    19:00 +4°C° 0 mm 4 mps 747 mmHg 79%
    20:00 +3°C° 0 mm 4 mps 747 mmHg 82%
    21:00 +3°C° 0 mm 4 mps 746 mmHg 82%
    22:00 +3°C° 0 mm 4 mps 746 mmHg 82%
    23:00 +3°C° 0 mm 4 mps 746 mmHg 83%

    Tomorrow, 20 February, Wednesday

    Time Temperature Precipitation Wind Pressure Humidity
    00:00 +1°C° 0 mm 4 mps 746 mmHg 84%
    01:00 +1°C° 0 mm 4 mps 746 mmHg 84%
    02:00 +1°C° 0 mm 4 mps 746 mmHg 85%
    03:00 +1°C° 0.3 mm 4 mps 745 mmHg 88%
    04:00 +1°C° 0.3 mm 4 mps 745 mmHg 91%
    05:00 +1°C° 0.3 mm 4 mps 745 mmHg 94%
    06:00 +3°C° 0 mm 4 mps 745 mmHg 93%
    07:00 +3°C° 0 mm 4 mps 745 mmHg 92%
    08:00 +2°C° 0 mm 5 mps 746 mmHg 90%
    09:00 +2°C° 0 mm 5 mps 746 mmHg 86%
    10:00 +3°C° 0 mm 6 mps 746 mmHg 82%
    11:00 +3°C° 0 mm 7 mps 746 mmHg 78%
    12:00 +4°C° 0 mm 7 mps 746 mmHg 72%
    13:00 +4°C° 0 mm 7 mps 746 mmHg 66%
    14:00 +5°C° 0 mm 8 mps 746 mmHg 60%
    15:00 +4°C° 0 mm 7 mps 746 mmHg 62%
    16:00 +4°C° 0 mm 7 mps 746 mmHg 63%
    17:00 +3°C° 0 mm 7 mps 746 mmHg 65%
    18:00 +3°C° 0 mm 7 mps 747 mmHg 67%
    19:00 +3°C° 0 mm 7 mps 747 mmHg 69%
    20:00 +2°C° 0 mm 7 mps 747 mmHg 71%
    21:00 +2°C° 0 mm 7 mps 747 mmHg 71%
    22:00 +2°C° 0 mm 7 mps 748 mmHg 70%
    23:00 0°C° 0 mm 8 mps 748 mmHg 70%

    Day after tomorrow, 21 February, Thursday

    Time Temperature Precipitation Wind Pressure Humidity
    00:00 -1°C° 0 mm 7 mps 748 mmHg 70%
    01:00 -2°C° 0 mm 6 mps 749 mmHg 71%
    02:00 -2°C° 0 mm 5 mps 749 mmHg 71%
    03:00 -4°C° 0 mm 5 mps 749 mmHg 69%
    04:00 -4°C° 0 mm 5 mps 749 mmHg 68%
    05:00 -4°C° 0 mm 5 mps 750 mmHg 66%
    06:00 -4°C° 0 mm 5 mps 750 mmHg 65%
    07:00 -4°C° 0 mm 5 mps 750 mmHg 64%
    08:00 -4°C° 0 mm 5 mps 750 mmHg 63%
    09:00 -2°C° 0 mm 5 mps 750 mmHg 58%
    10:00 -2°C° 0 mm 6 mps 750 mmHg 54%
    11:00 -1°C° 0 mm 6 mps 750 mmHg 50%
    12:00 +1°C° 0 mm 6 mps 750 mmHg 50%
    13:00 +1°C° 0 mm 6 mps 750 mmHg 50%
    14:00 +2°C° 0 mm 6 mps 750 mmHg 50%
    15:00 +1°C° 0 mm 5 mps 750 mmHg 54%
    16:00 +1°C° 0 mm 4 mps 750 mmHg 58%
    17:00 +1°C° 0 mm 3 mps 750 mmHg 62%
    18:00 +1°C° 0 mm 3 mps 750 mmHg 63%
    19:00 +1°C° 0 mm 2 mps 750 mmHg 64%
    20:00 +1°C° 0 mm 2 mps 751 mmHg 65%
    21:00 +1°C° 0 mm 2 mps 751 mmHg 63%
    22:00 -1°C° 0 mm 2 mps 751 mmHg 62%
    23:00 -1°C° 0 mm 3 mps 751 mmHg 60%

    22 February, Friday

    Time Temperature Precipitation Wind Pressure Humidity
    00:00 -2°C° 0 mm 3 mps 751 mmHg 60%
    01:00 -2°C° 0 mm 3 mps 752 mmHg 60%
    02:00 -2°C° 0 mm 3 mps 752 mmHg 60%
    03:00 -4°C° 0 mm 3 mps 752 mmHg 60%
    04:00 -4°C° 0 mm 4 mps 753 mmHg 60%
    05:00 -4°C° 0 mm 4 mps 753 mmHg 60%
    06:00 -6°C° 0 mm 5 mps 754 mmHg 60%
    07:00 -6°C° 0 mm 6 mps 755 mmHg 60%
    08:00 -6°C° 0 mm 6 mps 756 mmHg 60%
    09:00 -7°C° 0 mm 7 mps 757 mmHg 56%
    10:00 -7°C° 0 mm 7 mps 758 mmHg 52%
    11:00 -8°C° 0 mm 7 mps 758 mmHg 48%
    12:00 -7°C° 0 mm 7 mps 759 mmHg 45%
    13:00 -7°C° 0 mm 7 mps 760 mmHg 42%
    14:00 -7°C° 0 mm 7 mps 760 mmHg 40%
    15:00 -7°C° 0 mm 7 mps 761 mmHg 40%
    16:00 -6°C° 0 mm 6 mps 761 mmHg 39%
    17:00 -8°C° 0 mm 6 mps 762 mmHg 39%
    18:00 -7°C° 0 mm 5 mps 763 mmHg 41%
    19:00 -7°C° 0 mm 5 mps 763 mmHg 43%
    20:00 -7°C° 0 mm 5 mps 764 mmHg 45%
    21:00 -7°C° 0 mm 4 mps 764 mmHg 44%
    22:00 -7°C° 0 mm 4 mps 764 mmHg 44%
    23:00 -7°C° 0 mm 4 mps 765 mmHg 43%

    23 February, Saturday

    Time Temperature Precipitation Wind Pressure Humidity
    00:00 -7°C° 0 mm 4 mps 765 mmHg 45%
    01:00 -8°C° 0 mm 4 mps 765 mmHg 46%
    02:00 -8°C° 0 mm 4 mps 764 mmHg 47%
    03:00 -8°C° 0 mm 4 mps 764 mmHg 50%
    04:00 -8°C° 0 mm 4 mps 764 mmHg 53%
    05:00 -8°C° 0 mm 4 mps 764 mmHg 56%
    06:00 -8°C° 0 mm 4 mps 764 mmHg 57%
    07:00 -8°C° 0 mm 4 mps 765 mmHg 59%
    08:00 -7°C° 0 mm 3 mps 765 mmHg 61%
    09:00 -7°C° 0 mm 3 mps 765 mmHg 58%
    10:00 -6°C° 0 mm 3 mps 765 mmHg 55%
    11:00 -5°C° 0 mm 3 mps 765 mmHg 52%
    12:00 -5°C° 0 mm 4 mps 764 mmHg 50%
    13:00 -4°C° 0 mm 4 mps 764 mmHg 47%
    14:00 -3°C° 0 mm 4 mps 764 mmHg 44%
    15:00 -3°C° 0 mm 4 mps 763 mmHg 42%
    16:00 -3°C° 0 mm 4 mps 763 mmHg 40%
    17:00 -2°C° 0 mm 3 mps 763 mmHg 38%
    18:00 -4°C° 0 mm 3 mps 763 mmHg 46%
    19:00 -4°C° 0 mm 3 mps 763 mmHg 53%
    20:00 -4°C° 0 mm 2 mps 763 mmHg 61%
    21:00 -4°C° 0 mm 2 mps 763 mmHg 66%
    22:00 -2°C° 0 mm 1 mps 763 mmHg 72%
    23:00 -2°C° 0 mm 1 mps 762 mmHg 78%

    24 February, Sunday

    Time Temperature Precipitation Wind Pressure Humidity
    00:00 -2°C° 0 mm 1 mps 762 mmHg 79%
    01:00 -3°C° 0 mm 0 mps 762 mmHg 81%
    02:00 -3°C° 0 mm 0 mps 762 mmHg 82%
    03:00 -4°C° 0 mm 0 mps 763 mmHg 83%
    04:00 -4°C° 0 mm 0 mps 763 mmHg 84%
    05:00 -4°C° 0 mm 0 mps 763 mmHg 84%
    06:00 -4°C° 0 mm 0 mps 763 mmHg 83%
    07:00 -3°C° 0 mm 1 mps 763 mmHg 82%
    08:00 -3°C° 0 mm 1 mps 764 mmHg 81%
    09:00 -2°C° 0 mm 1 mps 764 mmHg 74%
    10:00 -1°C° 0 mm 1 mps 764 mmHg 68%
    11:00 0°C° 0 mm 1 mps 764 mmHg 61%
    12:00 0°C° 0 mm 1 mps 764 mmHg 59%
    13:00 +1°C° 0 mm 1 mps 764 mmHg 56%
    14:00 +2°C° 0 mm 1 mps 764 mmHg 53%
    15:00 0°C° 0 mm 0 mps 764 mmHg 55%
    16:00 0°C° 0 mm 0 mps 763 mmHg 57%
    17:00 0°C° 0 mm 0 mps 763 mmHg 59%
    18:00 -1°C° 0 mm 0 mps 763 mmHg 62%
    19:00 -1°C° 0 mm 0 mps 763 mmHg 65%
    20:00 -2°C° 0 mm 0 mps 762 mmHg 67%
    21:00 -1°C° 0 mm 1 mps 762 mmHg 69%
    22:00 -1°C° 0 mm 1 mps 761 mmHg 71%
    23:00 -1°C° 0 mm 1 mps 761 mmHg 72%
    Show more